| time (UTC) | temp F | wind direction | speed MPH | gust MPH | rain 1hr in | rain 24hr in | rain mn in | humidity % | barometer mb |
| 20260904175214 | 77 | 336 | 5.0 | 10.0 | 0.00 | 0.00 | 0.00 | 57 | 1014.4 |
| 20260904174003 | 76 | 351 | 4.0 | 8.0 | 0.00 | 0.00 | 0.00 | 59 | 1014.3 |
| 20260904173004 | 76 | 316 | 5.0 | 13.0 | 0.00 | 0.00 | 0.00 | 58 | 1014.4 |
| 20260904172003 | 75 | 292 | 3.0 | 11.0 | 0.00 | 0.00 | 0.00 | 59 | 1014.3 |
| 20260904171003 | 75 | 302 | 4.0 | 11.0 | 0.00 | 0.00 | 0.00 | 57 | 1014.3 |
| 20260904170003 | 76 | 338 | 4.0 | 11.0 | 0.00 | 0.00 | 0.00 | 57 | 1014.5 |
| 20260904165214 | 76 | 327 | 2.0 | 10.0 | 0.00 | 0.00 | 0.00 | 58 | 1014.6 |
| 20260904164004 | 75 | 258 | 3.0 | 10.0 | 0.00 | 0.00 | 0.00 | 60 | 1014.6 |
| 20260904163216 | 74 | 275 | 3.0 | 9.0 | 0.00 | 0.00 | 0.00 | 61 | 1014.5 |
| 20260904162215 | 74 | 310 | 3.0 | 10.0 | 0.00 | 0.00 | 0.00 | 63 | 1014.6 |
| 20260904161003 | 74 | 338 | 5.0 | 9.0 | 0.00 | 0.00 | 0.00 | 62 | 1014.5 |
| 20260904160003 | 74 | 336 | 3.0 | 10.0 | 0.00 | 0.00 | 0.00 | 64 | 1014.5 |
| 20260904155003 | 74 | 316 | 3.0 | 10.0 | 0.00 | 0.00 | 0.00 | 67 | 1014.6 |
| 20260904154003 | 74 | 334 | 2.0 | 8.0 | 0.00 | 0.00 | 0.00 | 68 | 1014.4 |
| 20260904153003 | 73 | 302 | 2.0 | 6.0 | 0.00 | 0.00 | 0.00 | 70 | 1014.5 |
| 20260904152004 | 73 | 327 | 3.0 | 10.0 | 0.00 | 0.00 | 0.00 | 69 | 1014.5 |
| 20260904151005 | 73 | 314 | 3.0 | 9.0 | 0.00 | 0.00 | 0.00 | 69 | 1014.5 |
| 20260904150215 | 73 | 354 | 3.0 | 12.0 | 0.00 | 0.00 | 0.00 | 69 | 1014.5 |
| 20260904145003 | 73 | 275 | 3.0 | 10.0 | 0.00 | 0.00 | 0.00 | 71 | 1014.7 |
| 20260904144003 | 72 | 316 | 2.0 | 8.0 | 0.00 | 0.00 | 0.00 | 73 | 1014.6 |
| 20260904143215 | 72 | 284 | 3.0 | 8.0 | 0.00 | 0.00 | 0.00 | 75 | 1014.6 |
| 20260904142003 | 72 | 338 | 2.0 | 10.0 | 0.00 | 0.00 | 0.00 | 79 | 1014.7 |
| 20260904141003 | 71 | 270 | 2.0 | 5.0 | 0.00 | 0.00 | 0.00 | 79 | 1014.6 |
| 20260904135213 | 71 | 316 | 2.0 | 6.0 | 0.00 | 0.00 | 0.00 | 82 | 1014.5 |
| 20260904134003 | 71 | 249 | 2.0 | 6.0 | 0.00 | 0.00 | 0.00 | 84 | 1014.6 |
| 20260904133006 | 71 | 293 | 2.0 | 9.0 | 0.00 | 0.00 | 0.00 | 83 | 1014.8 |
| 20260904132003 | 71 | 278 | 2.0 | 9.0 | 0.00 | 0.00 | 0.00 | 84 | 1014.9 |
| 20260904131003 | 70 | 255 | 2.0 | 6.0 | 0.00 | 0.00 | 0.00 | 85 | 1014.5 |
| 20260904130003 | 70 | 267 | 3.0 | 7.0 | 0.00 | 0.00 | 0.00 | 87 | 1014.4 |
| 20260904125004 | 69 | 290 | 2.0 | 7.0 | 0.00 | 0.00 | 0.00 | 89 | 1014.4 |
| 20260904124215 | 69 | 270 | 3.0 | 9.0 | 0.00 | 0.00 | 0.00 | 90 | 1014.6 |
| 20260904123213 | 68 | 285 | 3.0 | 12.0 | 0.00 | 0.00 | 0.00 | 91 | 1014.7 |
| 20260904122004 | 68 | 247 | 3.0 | 8.0 | 0.00 | 0.00 | 0.00 | 92 | 1014.6 |
| 20260904121004 | 67 | 295 | 2.0 | 8.0 | 0.00 | 0.00 | 0.00 | 92 | 1014.5 |
| 20260904120004 | 67 | 290 | 2.0 | 6.0 | 0.00 | 0.00 | 0.00 | 92 | 1014.7 |
| 20260904115217 | 67 | 274 | 2.0 | 9.0 | 0.00 | 0.00 | 0.00 | 93 | 1014.6 |
| 20260904114004 | 67 | 255 | 2.0 | 7.0 | 0.00 | 0.00 | 0.00 | 93 | 1014.4 |
| 20260904113007 | 67 | 232 | 2.0 | 6.0 | 0.00 | 0.00 | 0.00 | 93 | 1014.4 |
| 20260904112215 | 67 | 247 | 2.0 | 6.0 | 0.00 | 0.00 | 0.00 | 93 | 1014.3 |
| 20260904111003 | 66 | 230 | 2.0 | 7.0 | 0.00 | 0.00 | 0.00 | 93 | 1014.3 |
| 20260904110214 | 67 | 242 | 2.0 | 6.0 | 0.00 | 0.00 | 0.00 | 93 | 1014.3 |
| 20260904105004 | 67 | 253 | 2.0 | 6.0 | 0.00 | 0.00 | 0.00 | 93 | 1013.9 |
| 20260904104003 | 67 | 268 | 1.0 | 6.0 | 0.00 | 0.00 | 0.00 | 93 | 1014.0 |
| 20260904103003 | 67 | 269 | 1.0 | 6.0 | 0.00 | 0.00 | 0.00 | 92 | 1014.1 |
| 20260904102212 | 67 | 242 | 2.0 | 6.0 | 0.00 | 0.00 | 0.00 | 92 | 1014.0 |
| 20260904101214 | 67 | 194 | 2.0 | 5.0 | 0.00 | 0.00 | 0.00 | 92 | 1013.7 |
| 20260904100003 | 67 | 217 | 1.0 | 4.0 | 0.00 | 0.00 | 0.00 | 91 | 1013.7 |
| 20260904095214 | 67 | 250 | 1.0 | 6.0 | 0.00 | 0.00 | 0.00 | 91 | 1013.5 |
| 20260904094004 | 67 | 200 | 1.0 | 5.0 | 0.00 | 0.00 | 0.00 | 92 | 1013.4 |
| 20260904093004 | 68 | 241 | 2.0 | 4.0 | 0.00 | 0.00 | 0.00 | 92 | 1013.4 |
| 20260904092214 | 68 | 267 | 2.0 | 6.0 | 0.00 | 0.00 | 0.00 | 93 | 1013.4 |
| 20260904091004 | 68 | 209 | 1.0 | 5.0 | 0.00 | 0.00 | 0.00 | 93 | 1013.5 |
| 20260904090004 | 68 | 233 | 2.0 | 6.0 | 0.00 | 0.00 | 0.00 | 94 | 1013.4 |
| 20260904085004 | 68 | 261 | 1.0 | 6.0 | 0.00 | 0.00 | 0.00 | 95 | 1013.2 |
| 20260904084004 | 68 | 258 | 1.0 | 4.0 | 0.00 | 0.00 | 0.00 | 95 | 1013.2 |
| 20260904083004 | 68 | 214 | 1.0 | 8.0 | 0.00 | 0.00 | 0.00 | 95 | 1013.0 |
| 20260904082004 | 68 | 252 | 2.0 | 8.0 | 0.00 | 0.00 | 0.00 | 95 | 1013.0 |
| 20260904081005 | 69 | 300 | 1.0 | 5.0 | 0.00 | 0.00 | 0.00 | 95 | 1012.9 |
| 20260904080004 | 69 | 275 | 1.0 | 5.0 | 0.00 | 0.00 | 0.00 | 95 | 1012.9 |
| 20260904075004 | 69 | 223 | 1.0 | 5.0 | 0.00 | 0.00 | 0.00 | 95 | 1012.8 |
| 20260904074215 | 69 | 259 | 1.0 | 6.0 | 0.00 | 0.00 | 0.00 | 95 | 1012.8 |
| 20260904073215 | 69 | 207 | 1.0 | 5.0 | 0.00 | 0.00 | 0.00 | 95 | 1012.6 |
| 20260904072215 | 69 | 258 | 1.0 | 5.0 | 0.00 | 0.00 | 0.00 | 95 | 1012.7 |
| 20260904071003 | 69 | 255 | 2.0 | 5.0 | 0.00 | 0.00 | 0.00 | 95 | 1012.6 |
| 20260904070213 | 69 | 245 | 2.0 | 5.0 | 0.00 | 0.00 | 0.00 | 95 | 1012.7 |
| 20260904065213 | 69 | 214 | 1.0 | 6.0 | 0.00 | 0.00 | 0.00 | 95 | 1012.6 |
| 20260904064005 | 69 | 252 | 1.0 | 4.0 | 0.00 | 0.00 | 0.00 | 95 | 1012.5 |
| 20260904063003 | 70 | 219 | 1.0 | 4.0 | 0.00 | 0.00 | 0.00 | 94 | 1012.7 |
| 20260904062213 | 70 | 250 | 2.0 | 5.0 | 0.00 | 0.00 | 0.00 | 93 | 1012.9 |
| 20260904061005 | 70 | 189 | 2.0 | 5.0 | 0.00 | 0.00 | 0.00 | 92 | 1012.9 |
| 20260904060005 | 70 | 203 | 0.0 | 5.0 | 0.00 | 0.00 | 0.00 | 91 | 1013.1 |
| 20260904055003 | 70 | 220 | 0.0 | 3.0 | 0.00 | 0.00 | 0.00 | 90 | 1013.0 |
| 20260904054003 | 70 | 203 | 1.0 | 4.0 | 0.00 | 0.00 | 0.00 | 89 | 1013.1 |
| 20260904053003 | 71 | 261 | 1.0 | 3.0 | 0.00 | 0.01 | 0.00 | 89 | 1013.1 |
| 20260904052003 | 71 | 254 | 1.0 | 4.0 | 0.00 | 0.01 | 0.00 | 89 | 1013.1 |
| 20260904051004 | 71 | 213 | 1.0 | 5.0 | 0.00 | 0.01 | 0.00 | 89 | 1013.3 |
| 20260904050006 | 71 | 245 | 1.0 | 4.0 | 0.00 | 0.01 | 0.00 | 88 | 1013.5 |
| 20260904045214 | 71 | 240 | 1.0 | 5.0 | 0.00 | 0.01 | 0.00 | 88 | 1013.3 |
| 20260904044004 | 71 | 249 | 2.0 | 5.0 | 0.00 | 0.01 | 0.00 | 88 | 1013.1 |
| 20260904043003 | 71 | 232 | 2.0 | 5.0 | 0.00 | 0.01 | 0.00 | 88 | 1013.2 |
| 20260904042004 | 71 | 249 | 1.0 | 4.0 | 0.00 | 0.01 | 0.00 | 88 | 1013.2 |
| 20260904041003 | 71 | 228 | 0.0 | 4.0 | 0.00 | 0.01 | 0.00 | 88 | 1013.1 |
| 20260904040007 | 71 | 211 | 0.0 | 2.0 | 0.00 | 0.01 | 0.00 | 89 | 1012.9 |
| 20260904035214 | 71 | 206 | 1.0 | 3.0 | 0.00 | 0.01 | 0.01 | 89 | 1012.9 |
| 20260904034003 | 71 | 188 | 0.0 | 3.0 | 0.00 | 0.01 | 0.01 | 89 | 1013.0 |
| 20260904033214 | 71 | 191 | 1.0 | 3.0 | 0.00 | 0.01 | 0.01 | 89 | 1013.1 |
| 20260904032003 | 71 | 0 | 0.0 | 2.0 | 0.00 | 0.01 | 0.01 | 88 | 1013.1 |
| 20260904031003 | 71 | 207 | 0.0 | 2.0 | 0.00 | 0.01 | 0.01 | 88 | 1013.1 |
| 20260904030214 | 71 | 0 | 0.0 | 0.0 | 0.00 | 0.01 | 0.01 | 88 | 1013.2 |
| 20260904025004 | 71 | 0 | 0.0 | 0.0 | 0.00 | 0.01 | 0.01 | 88 | 1013.2 |
| 20260904024004 | 71 | 0 | 0.0 | 0.0 | 0.00 | 0.01 | 0.01 | 88 | 1013.2 |
| 20260904023004 | 71 | 0 | 0.0 | 0.0 | 0.00 | 0.01 | 0.01 | 88 | 1013.2 |
| 20260904022005 | 71 | 0 | 0.0 | 0.0 | 0.00 | 0.01 | 0.01 | 87 | 1013.4 |
| 20260904021005 | 71 | 0 | 0.0 | 0.0 | 0.00 | 0.01 | 0.01 | 86 | 1013.1 |
| 20260904020004 | 71 | 0 | 0.0 | 0.0 | 0.00 | 0.02 | 0.01 | 85 | 1013.4 |
| 20260904015004 | 71 | 0 | 0.0 | 0.0 | 0.00 | 0.02 | 0.01 | 85 | 1013.3 |
| 20260904014004 | 72 | 0 | 0.0 | 0.0 | 0.00 | 0.05 | 0.01 | 83 | 1013.5 |
| 20260904013004 | 72 | 0 | 0.0 | 0.0 | 0.00 | 0.05 | 0.01 | 83 | 1013.3 |
| 20260904012004 | 72 | 0 | 0.0 | 0.0 | 0.00 | 0.06 | 0.01 | 82 | 1013.1 |
| 20260904011005 | 72 | 0 | 0.0 | 0.0 | 0.00 | 0.06 | 0.01 | 81 | 1013.2 |
| 20260904010004 | 73 | 0 | 0.0 | 0.0 | 0.00 | 0.06 | 0.01 | 80 | 1013.3 |
| 20260904005215 | 73 | 0 | 0.0 | 0.0 | 0.00 | 0.06 | 0.01 | 79 | 1013.2 |
| 20260904004004 | 73 | 0 | 0.0 | 0.0 | 0.00 | 0.06 | 0.01 | 78 | 1013.5 |
| 20260904003215 | 74 | 0 | 0.0 | 0.0 | 0.00 | 0.06 | 0.01 | 77 | 1013.3 |
| 20260904002003 | 74 | 0 | 0.0 | 0.0 | 0.00 | 0.06 | 0.01 | 77 | 1013.1 |
| 20260904001006 | 75 | 270 | 1.0 | 2.0 | 0.00 | 0.06 | 0.01 | 76 | 1013.1 |
| 20260904000005 | 75 | 270 | 0.0 | 2.0 | 0.00 | 0.06 | 0.01 | 73 | 1013.1 |
| 20260903235003 | 75 | 0 | 0.0 | 1.0 | 0.00 | 0.06 | 0.01 | 73 | 1013.1 |
| 20260903234004 | 76 | 0 | 0.0 | 1.0 | 0.00 | 0.06 | 0.01 | 72 | 1012.9 |
| 20260903233003 | 76 | 321 | 0.0 | 3.0 | 0.00 | 0.06 | 0.01 | 71 | 1013.2 |
| 20260903232006 | 77 | 326 | 0.0 | 4.0 | 0.00 | 0.06 | 0.01 | 71 | 1013.1 |
| 20260903231003 | 77 | 330 | 0.0 | 6.0 | 0.00 | 0.06 | 0.01 | 71 | 1013.0 |
| 20260903230003 | 78 | 332 | 0.0 | 6.0 | 0.00 | 0.06 | 0.01 | 71 | 1012.8 |
| 20260903225003 | 78 | 13 | 0.0 | 4.0 | 0.00 | 0.06 | 0.01 | 70 | 1012.9 |
| 20260903224007 | 78 | 21 | 1.0 | 8.0 | 0.00 | 0.06 | 0.01 | 69 | 1012.7 |
| 20260903223005 | 79 | 357 | 2.0 | 6.0 | 0.00 | 0.06 | 0.01 | 67 | 1012.6 |
| 20260903222003 | 79 | 18 | 0.0 | 2.0 | 0.00 | 0.06 | 0.01 | 64 | 1012.4 |
| 20260903221214 | 79 | 344 | 0.0 | 2.0 | 0.00 | 0.06 | 0.01 | 65 | 1012.5 |
| 20260903220003 | 80 | 298 | 0.0 | 3.0 | 0.00 | 0.06 | 0.01 | 65 | 1012.5 |
| 20260903215004 | 80 | 306 | 0.0 | 3.0 | 0.00 | 0.06 | 0.01 | 64 | 1012.6 |
| 20260903214003 | 80 | 280 | 1.0 | 3.0 | 0.00 | 0.06 | 0.01 | 63 | 1012.6 |
| 20260903213004 | 80 | 304 | 1.0 | 4.0 | 0.00 | 0.06 | 0.01 | 61 | 1012.7 |
| 20260903212003 | 81 | 328 | 0.0 | 2.0 | 0.00 | 0.06 | 0.01 | 59 | 1012.5 |
| 20260903211004 | 81 | 329 | 0.0 | 5.0 | 0.00 | 0.06 | 0.01 | 60 | 1012.6 |
| 20260903210004 | 82 | 294 | 2.0 | 5.0 | 0.00 | 0.06 | 0.01 | 61 | 1012.6 |
| 20260903205003 | 81 | 287 | 1.0 | 5.0 | 0.00 | 0.06 | 0.01 | 62 | 1012.8 |
| 20260903204003 | 81 | 328 | 1.0 | 8.0 | 0.00 | 0.06 | 0.01 | 63 | 1013.0 |
| 20260903203215 | 81 | 291 | 2.0 | 8.0 | 0.00 | 0.06 | 0.01 | 60 | 1013.0 |
| 20260903202003 | 81 | 260 | 1.0 | 6.0 | 0.00 | 0.06 | 0.01 | 59 | 1013.1 |
| 20260903201003 | 82 | 312 | 2.0 | 4.0 | 0.00 | 0.06 | 0.01 | 58 | 1013.0 |
| 20260903200004 | 82 | 277 | 2.0 | 9.0 | 0.00 | 0.06 | 0.01 | 57 | 1013.1 |
| 20260903195004 | 82 | 279 | 2.0 | 7.0 | 0.00 | 0.06 | 0.01 | 58 | 1013.0 |
| 20260903194005 | 81 | 258 | 2.0 | 4.0 | 0.00 | 0.06 | 0.01 | 61 | 1013.1 |
| 20260903193005 | 81 | 290 | 2.0 | 6.0 | 0.00 | 0.06 | 0.01 | 60 | 1013.3 |
| 20260903192004 | 82 | 342 | 2.0 | 9.0 | 0.00 | 0.06 | 0.01 | 59 | 1013.3 |
| 20260903191004 | 82 | 303 | 1.0 | 7.0 | 0.00 | 0.06 | 0.01 | 62 | 1013.4 |
| 20260903190005 | 81 | 269 | 2.0 | 8.0 | 0.00 | 0.06 | 0.01 | 61 | 1013.5 |
| 20260903185006 | 81 | 282 | 2.0 | 7.0 | 0.00 | 0.06 | 0.01 | 60 | 1013.4 |
| 20260903184005 | 81 | 253 | 1.0 | 7.0 | 0.00 | 0.06 | 0.01 | 63 | 1013.7 |
| 20260903183004 | 80 | 301 | 2.0 | 9.0 | 0.00 | 0.06 | 0.01 | 63 | 1013.7 |
| 20260903182004 | 80 | 326 | 1.0 | 6.0 | 0.00 | 0.06 | 0.01 | 65 | 1013.3 |
| 20260903181214 | 80 | 300 | 4.0 | 8.0 | 0.00 | 0.06 | 0.01 | 64 | 1013.6 |
| 20260903180004 | 80 | 339 | 2.0 | 6.0 | 0.00 | 0.06 | 0.01 | 63 | 1013.5 |